Location: Kaarina
(60.4167°N, 22.4167°E)
Time: 02:29:01
(UTC+03:00)

OPS 8737 - Pass Details

Date: 24 August 2019
Orbit: 373 x 1735 km, 63.2° (Epoch: 22 August)

Event Time Altitude Azimuth Distance (km) Brightness Sun altitude
Rises 23:14:41 0° 293° (WNW) 2,247 9.0 -13.5°
Reaches altitude 10° 23:16:36 10° 295° (WNW) 1,413 7.9 -13.7°
Maximum altitude 23:19:36 81° 23° (NNE) 427 4.3 -13.9°
Enters shadow 23:21:46 21° 109° (ESE) 1,076 5.9 -14.0°
